Regional Weather Roundup
Issued by NWS State College, PA

Home | Current Version | Previous Version | Graphics & Text | Print | Product List | Glossary Off
Versions: 1 2 3 4 5 6 7 8 9 10 11 12 13 14 15 16 17 18 19 20 21 22 23 24 25 26 27 28 29 30 31 32 33 34 35 36 37 38 39 40 41 42 43 44 45 46 47 48 49 50

000
ASUS41 KCTP 211603
RWRCTP

REGIONAL WEATHER ROUNDUP
NATIONAL WEATHER SERVICE STATE COLLEGE PA
1200 PM EDT TUE OCT 21 2014

Note: "fair" indicates few or no clouds below 12,000 feet with no
significant weather and/or obstructions to visibility.

* = STATION THAT DOES NOT REPORT PRECIPITATION /E.G. RAIN...SNOW...ETC/
    THUNDER OR FOG.

PAZ002>004-007>009-013>016-020>023-029>032-211700-
WESTERN PENNSYLVANIA

CITY           SKY/WX    TMP DP  RH WIND       PRES   REMARKS
ERIE           LGT RAIN  52  45  77 NW8       29.89R
MEADVILLE      CLOUDY    50  46  86 NW6       29.88S
FRANKLIN*      CLOUDY    48  45  87 CALM      29.89S
NEW CASTLE     LGT RAIN  51  49  93 CALM      29.91S
BEAVER COUNTY  RAIN      50  48  93 N9        29.90R
BUTLER*        CLOUDY    50  46  87 NW5       29.91R
PITTSBURGH INT CLOUDY    54  47  77 NW14      29.89R
PITTSBURGH     CLOUDY    52  45  77 NW8G18    29.88R
INDIANA*       CLOUDY    52  50  93 SW6       29.91R FOG
LATROBE        LGT RAIN  52  52 100 SW8       29.89S FOG
WASHINGTON CO* CLOUDY    52  48  87 NW6       29.91R
$$

PAZ004>006-010>012-017>019-024>028-033>037-041-042-045-046-049>053-211700-
CENTRAL PENNSYLVANIA

CITY           SKY/WX    TMP DP  RH WIND       PRES   REMARKS
BRADFORD       CLOUDY    49  46  90 CALM      29.86R FOG
DUBOIS         RAIN      48  46  93 SW7       29.86R FOG
CLEARFIELD     CLOUDY    52  49  89 SW6       29.87S
JOHNSTOWN      CLOUDY    50  46  86 W9        29.86F
ALTOONA        CLOUDY    54  49  83 SW7       29.87S
STATE COLLEGE  CLOUDY    55  48  76 SW5       29.86S
WILLIAMSPORT   CLOUDY    54  45  71 CALM      29.86S
SELINSGROVE    CLOUDY    56  49  77 CALM      29.87S
FT INDIANTOWN  CLOUDY    59  57  94 VRB1      29.87F
CAPITAL CITY   PTSUNNY   58  51  78 CALM      29.87F
HARRISBURG     CLOUDY    57  51  80 NW6       29.86F
YORK           MOSUNNY   62  49  62 W8        29.86F
$$

PAZ038>040-043-044-047-048-054-055-060>062-067>071-211700-
EASTERN PENNSYLVANIA

CITY           SKY/WX    TMP DP  RH WIND       PRES   REMARKS
SCRANTON       PTSUNNY   59  47  64 CALM      29.86S
MOUNT POCONO   CLOUDY    51  46  83 CALM      29.88S
ALLENTOWN      SUNNY     61  49  64 CALM      29.87F
QUAKERTOWN*    SUNNY     63  50  63 CALM      29.87F
READING        PTSUNNY   60  51  72 CALM      29.86F
LANCASTER      MOSUNNY   60  51  72 CALM      29.86F
COATESVILLE    SUNNY     63  48  59 W6        29.87S
POTTSTOWN      MOSUNNY   62  49  62 CALM      29.88F
BLUE BELL      SUNNY     64  50  59 CALM      29.86S
DOYLESTOWN     SUNNY     63  50  62 CALM      29.86F
WILLOW GROVE   NOT AVBL
NORTH PHILA    PTSUNNY   64  49  57 VRB3      29.88F
PHILADELPHIA   MOSUNNY   64  49  57 W6        29.87F
$$



USA.gov is the U.S. government's official web portal to all federal, state and local government web resources and services.